Year,Month,Day,Hour,Minute,Value (Times are PST for temperature in C)
2009,06,03,00,00,18.60
2009,06,03,00,01,18.60
2009,06,03,00,02,18.60
2009,06,03,00,03,18.60
2009,06,03,00,04,18.60
2009,06,03,00,05,18.60
2009,06,03,00,06,18.60
2009,06,03,00,07,18.60
2009,06,03,00,08,18.50
2009,06,03,00,09,18.50
2009,06,03,00,10,18.50
2009,06,03,00,11,18.40
2009,06,03,00,12,18.40
2009,06,03,00,13,18.30
2009,06,03,00,14,18.30
2009,06,03,00,15,18.20
2009,06,03,00,16,18.20
2009,06,03,00,17,18.20
2009,06,03,00,18,18.20
2009,06,03,00,19,18.20
2009,06,03,00,20,18.20
2009,06,03,00,21,18.10
2009,06,03,00,22,18.10
2009,06,03,00,23,18.10
2009,06,03,00,24,18.10
2009,06,03,00,25,17.90
2009,06,03,00,26,17.90
2009,06,03,00,27,17.90
2009,06,03,00,28,17.90
2009,06,03,00,29,17.90
2009,06,03,00,30,17.80
2009,06,03,00,31,17.80
2009,06,03,00,32,17.70
2009,06,03,00,33,17.70
2009,06,03,00,34,17.70
2009,06,03,00,35,17.60
2009,06,03,00,36,17.60
2009,06,03,00,37,17.50
2009,06,03,00,38,17.50
2009,06,03,00,39,17.50
2009,06,03,00,40,17.40
2009,06,03,00,41,17.40
2009,06,03,00,42,17.40
2009,06,03,00,43,17.30
2009,06,03,00,44,17.30
2009,06,03,00,45,17.30
2009,06,03,00,46,17.30
2009,06,03,00,47,17.30
2009,06,03,00,48,17.30
2009,06,03,00,49,17.30
2009,06,03,00,50,17.20
2009,06,03,00,51,17.20
2009,06,03,00,52,17.10
2009,06,03,00,53,17.10
2009,06,03,00,54,17.10
2009,06,03,00,55,17.00
2009,06,03,00,56,17.00
2009,06,03,00,57,17.00
2009,06,03,00,58,17.00
2009,06,03,00,59,16.90
2009,06,03,01,00,16.90
2009,06,03,01,01,16.80
2009,06,03,01,02,16.80
2009,06,03,01,03,16.70
2009,06,03,01,04,16.70
2009,06,03,01,05,16.70
2009,06,03,01,06,16.70
2009,06,03,01,07,16.70
2009,06,03,01,08,16.60
2009,06,03,01,09,16.60
2009,06,03,01,10,16.60
2009,06,03,01,11,16.60
2009,06,03,01,12,16.60
2009,06,03,01,13,16.60
2009,06,03,01,14,16.60
2009,06,03,01,15,16.60
2009,06,03,01,16,16.50
2009,06,03,01,17,16.40
2009,06,03,01,18,16.40
2009,06,03,01,19,16.40
2009,06,03,01,20,16.40
2009,06,03,01,21,16.40
2009,06,03,01,22,16.40
2009,06,03,01,23,16.40
2009,06,03,01,24,16.40
2009,06,03,01,25,16.40
2009,06,03,01,26,16.30
2009,06,03,01,27,16.30
2009,06,03,01,28,16.30
2009,06,03,01,29,16.30
2009,06,03,01,30,16.30
2009,06,03,01,31,16.20
2009,06,03,01,32,16.20
2009,06,03,01,33,16.20
2009,06,03,01,34,16.20
2009,06,03,01,35,16.10
2009,06,03,01,36,16.10
2009,06,03,01,37,15.90
2009,06,03,01,38,15.80
2009,06,03,01,39,15.80
2009,06,03,01,40,15.70
2009,06,03,01,41,15.60
2009,06,03,01,42,15.60
2009,06,03,01,43,15.50
2009,06,03,01,44,15.50
2009,06,03,01,45,15.40
2009,06,03,01,46,15.40
2009,06,03,01,47,15.30
2009,06,03,01,48,15.20
2009,06,03,01,49,15.10
2009,06,03,01,50,15.00
2009,06,03,01,51,15.00
2009,06,03,01,52,14.90
2009,06,03,01,53,14.90
2009,06,03,01,54,14.80
2009,06,03,01,55,14.80
2009,06,03,01,56,14.80
2009,06,03,01,57,14.80
2009,06,03,01,58,14.80
2009,06,03,01,59,14.80
2009,06,03,02,00,14.80
2009,06,03,02,01,14.70
2009,06,03,02,02,14.70
2009,06,03,02,03,14.70
2009,06,03,02,04,14.70
2009,06,03,02,05,14.70
2009,06,03,02,06,14.70
2009,06,03,02,07,14.70
2009,06,03,02,08,14.70
2009,06,03,02,09,14.70
2009,06,03,02,10,14.70
2009,06,03,02,11,14.80
2009,06,03,02,12,14.80
2009,06,03,02,13,14.80
2009,06,03,02,14,14.80
2009,06,03,02,15,14.80
2009,06,03,02,16,14.80
2009,06,03,02,17,14.80
2009,06,03,02,18,14.90
2009,06,03,02,19,14.90
2009,06,03,02,20,14.90
2009,06,03,02,21,14.90
2009,06,03,02,22,14.90
2009,06,03,02,23,15.00
2009,06,03,02,24,15.00
2009,06,03,02,25,15.00
2009,06,03,02,26,15.00
2009,06,03,02,27,15.00
2009,06,03,02,28,15.00
2009,06,03,02,29,15.00
2009,06,03,02,30,15.00
2009,06,03,02,31,15.00
2009,06,03,02,32,15.10
2009,06,03,02,33,15.10
2009,06,03,02,34,15.10
2009,06,03,02,35,15.10
2009,06,03,02,36,15.20
2009,06,03,02,37,15.20
2009,06,03,02,38,15.20
2009,06,03,02,39,15.20
2009,06,03,02,40,15.30
2009,06,03,02,41,15.30
2009,06,03,02,42,15.30
2009,06,03,02,43,15.30
2009,06,03,02,44,15.30
2009,06,03,02,45,15.30
2009,06,03,02,46,15.30
2009,06,03,02,47,15.40
2009,06,03,02,48,15.40
2009,06,03,02,49,15.40
2009,06,03,02,50,15.50
2009,06,03,02,51,15.50
2009,06,03,02,52,15.50
2009,06,03,02,53,15.50
2009,06,03,02,54,15.50
2009,06,03,02,55,15.60
2009,06,03,02,56,15.60
2009,06,03,02,57,15.60
2009,06,03,02,58,15.50
2009,06,03,02,59,15.50
2009,06,03,03,00,15.50
2009,06,03,03,01,15.40
2009,06,03,03,02,15.30
2009,06,03,03,03,15.20
2009,06,03,03,04,15.10
2009,06,03,03,05,15.00
2009,06,03,03,06,14.80
2009,06,03,03,07,14.70
2009,06,03,03,08,14.50
2009,06,03,03,09,14.40
2009,06,03,03,10,14.30
2009,06,03,03,11,14.20
2009,06,03,03,12,14.10
2009,06,03,03,13,14.10
2009,06,03,03,14,14.00
2009,06,03,03,15,14.00
2009,06,03,03,16,13.90
2009,06,03,03,17,13.90
2009,06,03,03,18,13.70
2009,06,03,03,19,13.70
2009,06,03,03,20,13.60
2009,06,03,03,21,13.60
2009,06,03,03,22,13.60
2009,06,03,03,23,13.60
2009,06,03,03,24,13.50
2009,06,03,03,25,13.50
2009,06,03,03,26,13.50
2009,06,03,03,27,13.50
2009,06,03,03,28,13.40
2009,06,03,03,29,13.40
2009,06,03,03,30,13.40
2009,06,03,03,31,13.40
2009,06,03,03,32,13.40
2009,06,03,03,33,13.40
2009,06,03,03,34,13.40
2009,06,03,03,35,13.30
2009,06,03,03,36,13.30
2009,06,03,03,37,13.40
2009,06,03,03,38,13.40
2009,06,03,03,39,13.40
2009,06,03,03,40,13.40
2009,06,03,03,41,13.40
2009,06,03,03,42,13.40
2009,06,03,03,43,13.40
2009,06,03,03,44,13.50
2009,06,03,03,45,13.50
2009,06,03,03,46,13.50
2009,06,03,03,47,13.50
2009,06,03,03,48,13.60
2009,06,03,03,49,13.60
2009,06,03,03,50,13.60
2009,06,03,03,51,13.70
2009,06,03,03,52,13.70
2009,06,03,03,53,13.70
2009,06,03,03,54,13.70
2009,06,03,03,55,13.70
2009,06,03,03,56,13.70
2009,06,03,03,57,13.80
2009,06,03,03,58,13.80
2009,06,03,03,59,13.80
2009,06,03,04,00,13.90
2009,06,03,04,01,13.90
2009,06,03,04,02,13.90
2009,06,03,04,03,13.90
2009,06,03,04,04,13.90
2009,06,03,04,05,14.00
2009,06,03,04,06,14.00
2009,06,03,04,07,14.00
2009,06,03,04,08,14.00
2009,06,03,04,09,14.00
2009,06,03,04,10,14.00
2009,06,03,04,11,14.00
2009,06,03,04,12,13.90
2009,06,03,04,13,13.90
2009,06,03,04,14,13.90
2009,06,03,04,15,13.80
2009,06,03,04,16,13.80
2009,06,03,04,17,13.70
2009,06,03,04,18,13.70
2009,06,03,04,19,13.70
2009,06,03,04,20,13.70
2009,06,03,04,21,13.70
2009,06,03,04,22,13.60
2009,06,03,04,23,13.60
2009,06,03,04,24,13.50
2009,06,03,04,25,13.50
2009,06,03,04,26,13.40
2009,06,03,04,27,13.40
2009,06,03,04,28,13.30
2009,06,03,04,29,13.30
2009,06,03,04,30,13.30
2009,06,03,04,31,13.30
2009,06,03,04,32,13.30
2009,06,03,04,33,13.30
2009,06,03,04,34,13.30
2009,06,03,04,35,13.30
2009,06,03,04,36,13.30
2009,06,03,04,37,13.30
2009,06,03,04,38,13.30
2009,06,03,04,39,13.30
2009,06,03,04,40,13.20
2009,06,03,04,41,13.20
2009,06,03,04,42,13.20
2009,06,03,04,43,13.20
2009,06,03,04,44,13.20
2009,06,03,04,45,13.20
2009,06,03,04,46,13.20
2009,06,03,04,47,13.20
2009,06,03,04,48,13.20
2009,06,03,04,49,13.20
2009,06,03,04,50,13.20
2009,06,03,04,51,13.20
2009,06,03,04,52,13.20
2009,06,03,04,53,13.20
2009,06,03,04,54,13.20
2009,06,03,04,55,13.20
2009,06,03,04,56,13.20
2009,06,03,04,57,13.20
2009,06,03,04,58,13.20
2009,06,03,04,59,13.30
2009,06,03,05,00,13.30
2009,06,03,05,01,13.30
2009,06,03,05,02,13.30
2009,06,03,05,03,13.30
2009,06,03,05,04,13.30
2009,06,03,05,05,13.40
2009,06,03,05,06,13.40
2009,06,03,05,07,13.40
2009,06,03,05,08,13.50
2009,06,03,05,09,13.50
2009,06,03,05,10,13.50
2009,06,03,05,11,13.50
2009,06,03,05,12,13.60
2009,06,03,05,13,13.60
2009,06,03,05,14,13.60
2009,06,03,05,15,13.70
2009,06,03,05,16,13.70
2009,06,03,05,17,13.70
2009,06,03,05,18,13.80
2009,06,03,05,19,13.90
2009,06,03,05,20,14.00
2009,06,03,05,21,14.20
2009,06,03,05,22,14.30
2009,06,03,05,23,14.40
2009,06,03,05,24,14.50
2009,06,03,05,25,14.60
2009,06,03,05,26,14.70
2009,06,03,05,27,14.80
2009,06,03,05,28,14.90
2009,06,03,05,29,15.00
2009,06,03,05,30,15.00
2009,06,03,05,31,15.10
2009,06,03,05,32,15.10
2009,06,03,05,33,15.20
2009,06,03,05,34,15.20
2009,06,03,05,35,15.20
2009,06,03,05,36,15.20
2009,06,03,05,37,15.20
2009,06,03,05,38,15.20
2009,06,03,05,39,15.20
2009,06,03,05,40,15.20
2009,06,03,05,41,15.20
2009,06,03,05,42,15.30
2009,06,03,05,43,15.30
2009,06,03,05,44,15.30
2009,06,03,05,45,15.30
2009,06,03,05,46,15.30
2009,06,03,05,47,15.40
2009,06,03,05,48,15.40
2009,06,03,05,49,15.50
2009,06,03,05,50,15.50
2009,06,03,05,51,15.60
2009,06,03,05,52,15.60
2009,06,03,05,53,15.70
2009,06,03,05,54,15.80
2009,06,03,05,55,15.80
2009,06,03,05,56,15.90
2009,06,03,05,57,15.90
2009,06,03,05,58,16.10
2009,06,03,05,59,16.10
2009,06,03,06,00,16.10
2009,06,03,06,01,16.10
2009,06,03,06,02,16.10
2009,06,03,06,03,16.20
2009,06,03,06,04,16.20
2009,06,03,06,05,16.20
2009,06,03,06,06,16.20
2009,06,03,06,07,16.20
2009,06,03,06,08,16.20
2009,06,03,06,09,16.30
2009,06,03,06,10,16.30
2009,06,03,06,11,16.30
2009,06,03,06,12,16.30
2009,06,03,06,13,16.40
2009,06,03,06,14,16.40
2009,06,03,06,15,16.40
2009,06,03,06,16,16.40
2009,06,03,06,17,16.40
2009,06,03,06,18,16.40
2009,06,03,06,19,16.40
2009,06,03,06,20,16.40
2009,06,03,06,21,16.50
2009,06,03,06,22,16.60
2009,06,03,06,23,16.60
2009,06,03,06,24,16.60
2009,06,03,06,25,16.60
2009,06,03,06,26,16.70
2009,06,03,06,27,16.70
2009,06,03,06,28,16.70
2009,06,03,06,29,16.70
2009,06,03,06,30,16.70
2009,06,03,06,31,16.70
2009,06,03,06,32,16.70
2009,06,03,06,33,16.70
2009,06,03,06,34,16.70
2009,06,03,06,35,16.70
2009,06,03,06,36,16.80
2009,06,03,06,37,16.80
2009,06,03,06,38,16.80
2009,06,03,06,39,16.80
2009,06,03,06,40,16.80
2009,06,03,06,41,16.80
2009,06,03,06,42,16.80
2009,06,03,06,43,16.80
2009,06,03,06,44,16.80
2009,06,03,06,45,16.80
2009,06,03,06,46,16.90
2009,06,03,06,47,16.90
2009,06,03,06,48,16.90
2009,06,03,06,49,16.90
2009,06,03,06,50,16.90
2009,06,03,06,51,16.90
2009,06,03,06,52,16.90
2009,06,03,06,53,16.90
2009,06,03,06,54,16.90
2009,06,03,06,55,16.90
2009,06,03,06,56,16.90
2009,06,03,06,57,16.90
2009,06,03,06,58,16.90
2009,06,03,06,59,16.80
2009,06,03,07,00,16.80
2009,06,03,07,01,16.80
2009,06,03,07,02,16.80
2009,06,03,07,03,16.80
2009,06,03,07,04,16.80
2009,06,03,07,05,16.90
2009,06,03,07,06,16.90
2009,06,03,07,07,16.90
2009,06,03,07,08,17.00
2009,06,03,07,09,17.10
2009,06,03,07,10,17.20
2009,06,03,07,11,17.30
2009,06,03,07,12,17.30
2009,06,03,07,13,17.40
2009,06,03,07,14,17.40
2009,06,03,07,15,17.40
2009,06,03,07,16,17.50
2009,06,03,07,17,17.50
2009,06,03,07,18,17.50
2009,06,03,07,19,17.60
2009,06,03,07,20,17.60
2009,06,03,07,21,17.70
2009,06,03,07,22,17.80
2009,06,03,07,23,17.90
2009,06,03,07,24,17.90
2009,06,03,07,25,18.00
2009,06,03,07,26,18.10
2009,06,03,07,27,18.20
2009,06,03,07,28,18.30
2009,06,03,07,29,18.40
2009,06,03,07,30,18.50
2009,06,03,07,31,18.60
2009,06,03,07,32,18.70
2009,06,03,07,33,18.80
2009,06,03,07,34,18.90
2009,06,03,07,35,19.00
2009,06,03,07,36,19.10
2009,06,03,07,37,19.20
2009,06,03,07,38,19.30
2009,06,03,07,39,19.40
2009,06,03,07,40,19.40
2009,06,03,07,41,19.50
2009,06,03,07,42,19.50
2009,06,03,07,43,19.60
2009,06,03,07,44,19.60
2009,06,03,07,45,19.70
2009,06,03,07,46,19.70
2009,06,03,07,47,19.70
2009,06,03,07,48,19.80
2009,06,03,07,49,19.80
2009,06,03,07,50,19.90
2009,06,03,07,51,19.90
2009,06,03,07,52,20.00
2009,06,03,07,53,20.10
2009,06,03,07,54,20.10
2009,06,03,07,55,20.20
2009,06,03,07,56,20.20
2009,06,03,07,57,20.20
2009,06,03,07,58,20.30
2009,06,03,07,59,20.30
2009,06,03,08,00,20.40
2009,06,03,08,01,20.50
2009,06,03,08,02,20.50
2009,06,03,08,03,20.60
2009,06,03,08,04,20.60
2009,06,03,08,05,20.60
2009,06,03,08,06,20.70
2009,06,03,08,07,20.80
2009,06,03,08,08,20.80
2009,06,03,08,09,20.90
2009,06,03,08,10,21.00
2009,06,03,08,11,21.00
2009,06,03,08,12,21.10
2009,06,03,08,13,21.20
2009,06,03,08,14,21.20
2009,06,03,08,15,21.30
2009,06,03,08,16,21.30
2009,06,03,08,17,21.40
2009,06,03,08,18,21.50
2009,06,03,08,19,21.60
2009,06,03,08,20,21.60
2009,06,03,08,21,21.60
2009,06,03,08,22,21.60
2009,06,03,08,23,21.60
2009,06,03,08,24,21.70
2009,06,03,08,25,21.70
2009,06,03,08,26,21.80
2009,06,03,08,27,21.80
2009,06,03,08,28,21.90
2009,06,03,08,29,21.90
2009,06,03,08,30,22.00
2009,06,03,08,31,22.00
2009,06,03,08,32,22.10
2009,06,03,08,33,22.10
2009,06,03,08,34,22.20
2009,06,03,08,35,22.20
2009,06,03,08,36,22.30
2009,06,03,08,37,22.30
2009,06,03,08,38,22.30
2009,06,03,08,39,22.40
2009,06,03,08,40,22.40
2009,06,03,08,41,22.40
2009,06,03,08,42,22.50
2009,06,03,08,43,22.50
2009,06,03,08,44,22.50
2009,06,03,08,45,22.50
2009,06,03,08,46,22.60
2009,06,03,08,47,22.60
2009,06,03,08,48,22.70
2009,06,03,08,49,22.80
2009,06,03,08,50,22.90
2009,06,03,08,51,23.00
2009,06,03,08,52,23.10
2009,06,03,08,53,23.20
2009,06,03,08,54,23.30
2009,06,03,08,55,23.30
2009,06,03,08,56,23.30
2009,06,03,08,57,23.30
2009,06,03,08,58,23.30
2009,06,03,08,59,23.30
2009,06,03,09,00,23.30
2009,06,03,09,01,23.30
2009,06,03,09,02,23.40
2009,06,03,09,03,23.40
2009,06,03,09,04,23.40
2009,06,03,09,05,23.50
2009,06,03,09,06,23.60
2009,06,03,09,07,23.60
2009,06,03,09,08,23.60
2009,06,03,09,09,23.70
2009,06,03,09,10,23.70
2009,06,03,09,11,23.70
2009,06,03,09,12,23.80
2009,06,03,09,13,23.80
2009,06,03,09,14,23.80
2009,06,03,09,15,23.90
2009,06,03,09,16,23.90
2009,06,03,09,17,23.90
2009,06,03,09,18,24.00
2009,06,03,09,19,24.10
2009,06,03,09,20,24.10
2009,06,03,09,21,24.10
2009,06,03,09,22,24.00
2009,06,03,09,23,23.90
2009,06,03,09,24,23.90
2009,06,03,09,25,23.90
2009,06,03,09,26,23.90
2009,06,03,09,27,23.90
2009,06,03,09,28,24.00
2009,06,03,09,29,24.10
2009,06,03,09,30,24.10
2009,06,03,09,31,24.30
2009,06,03,09,32,24.30
2009,06,03,09,33,24.40
2009,06,03,09,34,24.50
2009,06,03,09,35,24.50
2009,06,03,09,36,24.50
2009,06,03,09,37,24.50
2009,06,03,09,38,24.50
2009,06,03,09,39,24.50
2009,06,03,09,40,24.50
2009,06,03,09,41,24.40
2009,06,03,09,42,24.50
2009,06,03,09,43,24.50
2009,06,03,09,44,24.50
2009,06,03,09,45,24.50
2009,06,03,09,46,24.50
2009,06,03,09,47,24.60
2009,06,03,09,48,24.70
2009,06,03,09,49,24.80
2009,06,03,09,50,24.90
2009,06,03,09,51,24.90
2009,06,03,09,52,24.90
2009,06,03,09,53,25.00
2009,06,03,09,54,24.90
2009,06,03,09,55,24.80
2009,06,03,09,56,24.80
2009,06,03,09,57,24.80
2009,06,03,09,58,24.70
2009,06,03,09,59,24.70
2009,06,03,10,00,24.60
2009,06,03,10,01,24.60
2009,06,03,10,02,24.70
2009,06,03,10,03,24.90
2009,06,03,10,04,24.90
2009,06,03,10,05,24.90
2009,06,03,10,06,24.80
2009,06,03,10,07,24.80
2009,06,03,10,08,24.80
2009,06,03,10,09,24.80
2009,06,03,10,10,24.70
2009,06,03,10,11,24.70
2009,06,03,10,12,24.70
2009,06,03,10,13,24.80
2009,06,03,10,14,24.80
2009,06,03,10,15,24.80
2009,06,03,10,16,24.80
2009,06,03,10,17,24.80
2009,06,03,10,18,24.80
2009,06,03,10,19,24.80
2009,06,03,10,20,24.90
2009,06,03,10,21,24.80
2009,06,03,10,22,24.80
2009,06,03,10,23,24.70
2009,06,03,10,24,24.60
2009,06,03,10,25,24.60
2009,06,03,10,26,24.60
2009,06,03,10,27,24.50
2009,06,03,10,28,24.50
2009,06,03,10,29,24.40
2009,06,03,10,30,24.40
2009,06,03,10,31,24.40
2009,06,03,10,32,24.50
2009,06,03,10,33,24.60
2009,06,03,10,34,24.60
2009,06,03,10,35,24.70
2009,06,03,10,36,24.70
2009,06,03,10,37,24.70
2009,06,03,10,38,24.70
2009,06,03,10,39,24.70
2009,06,03,10,40,24.70
2009,06,03,10,41,24.70
2009,06,03,10,42,24.70
2009,06,03,10,43,24.70
2009,06,03,10,44,24.70
2009,06,03,10,45,24.80
2009,06,03,10,46,24.80
2009,06,03,10,47,24.90
2009,06,03,10,48,24.80
2009,06,03,10,49,24.80
2009,06,03,10,50,24.70
2009,06,03,10,51,24.70
2009,06,03,10,52,24.60
2009,06,03,10,53,24.60
2009,06,03,10,54,24.60
2009,06,03,10,55,24.40
2009,06,03,10,56,24.40
2009,06,03,10,57,24.40
2009,06,03,10,58,24.40
2009,06,03,10,59,24.40
2009,06,03,11,00,24.40
2009,06,03,11,01,24.30
2009,06,03,11,02,24.20
2009,06,03,11,03,24.00
2009,06,03,11,04,23.80
2009,06,03,11,05,23.80
2009,06,03,11,06,23.80
2009,06,03,11,07,23.80
2009,06,03,11,08,23.80
2009,06,03,11,09,23.80
2009,06,03,11,10,23.80
2009,06,03,11,11,23.90
2009,06,03,11,12,23.90
2009,06,03,11,13,23.90
2009,06,03,11,14,23.90
2009,06,03,11,15,24.00
2009,06,03,11,16,24.10
2009,06,03,11,17,24.10
2009,06,03,11,18,24.20
2009,06,03,11,19,24.20
2009,06,03,11,20,24.20
2009,06,03,11,21,24.30
2009,06,03,11,22,24.30
2009,06,03,11,23,24.20
2009,06,03,11,24,24.10
2009,06,03,11,25,24.10
2009,06,03,11,26,24.00
2009,06,03,11,27,23.90
2009,06,03,11,28,23.70
2009,06,03,11,29,23.70
2009,06,03,11,30,23.70
2009,06,03,11,31,23.70
2009,06,03,11,32,23.70
2009,06,03,11,33,23.70
2009,06,03,11,34,23.70
2009,06,03,11,35,23.60
2009,06,03,11,36,23.40
2009,06,03,11,37,23.30
2009,06,03,11,38,23.20
2009,06,03,11,39,23.10
2009,06,03,11,40,22.90
2009,06,03,11,41,22.90
2009,06,03,11,42,22.90
2009,06,03,11,43,22.80
2009,06,03,11,44,22.90
2009,06,03,11,45,22.90
2009,06,03,11,46,22.90
2009,06,03,11,47,23.00
2009,06,03,11,48,23.10
2009,06,03,11,49,23.30
2009,06,03,11,50,23.30
2009,06,03,11,51,23.50
2009,06,03,11,52,23.60
2009,06,03,11,53,23.70
2009,06,03,11,54,23.70
2009,06,03,11,55,23.80
2009,06,03,11,56,23.80
2009,06,03,11,57,23.80
2009,06,03,11,58,23.80
2009,06,03,11,59,23.90
2009,06,03,12,00,23.90
2009,06,03,12,01,23.90
2009,06,03,12,02,23.90
2009,06,03,12,03,23.90
2009,06,03,12,04,23.90
2009,06,03,12,05,23.90
2009,06,03,12,06,24.10
2009,06,03,12,07,24.10
2009,06,03,12,08,24.20
2009,06,03,12,09,24.30
2009,06,03,12,10,24.50
2009,06,03,12,11,24.60
2009,06,03,12,12,24.80
2009,06,03,12,13,24.90
2009,06,03,12,14,24.90
2009,06,03,12,15,25.00
2009,06,03,12,16,24.90
2009,06,03,12,17,24.90
2009,06,03,12,18,24.90
2009,06,03,12,19,24.90
2009,06,03,12,20,24.90
2009,06,03,12,21,25.00
2009,06,03,12,22,25.10
2009,06,03,12,23,25.10
2009,06,03,12,24,25.10
2009,06,03,12,25,25.10
2009,06,03,12,26,25.20
2009,06,03,12,27,25.30
2009,06,03,12,28,25.40
2009,06,03,12,29,25.40
2009,06,03,12,30,25.50
2009,06,03,12,31,25.40
2009,06,03,12,32,25.40
2009,06,03,12,33,25.40
2009,06,03,12,34,25.40
2009,06,03,12,35,25.40
2009,06,03,12,36,25.40
2009,06,03,12,37,25.30
2009,06,03,12,38,25.30
2009,06,03,12,39,25.30
2009,06,03,12,40,25.30
2009,06,03,12,41,25.30
2009,06,03,12,42,25.30
2009,06,03,12,43,25.40
2009,06,03,12,44,25.40
2009,06,03,12,45,25.40
2009,06,03,12,46,25.50
2009,06,03,12,47,25.60
2009,06,03,12,48,25.50
2009,06,03,12,49,25.40
2009,06,03,12,50,25.30
2009,06,03,12,51,25.30
2009,06,03,12,52,25.30
2009,06,03,12,53,25.30
2009,06,03,12,54,25.40
2009,06,03,12,55,25.40
2009,06,03,12,56,25.50
2009,06,03,12,57,25.60
2009,06,03,12,58,25.80
2009,06,03,12,59,25.80
2009,06,03,13,00,25.70
2009,06,03,13,01,25.70
2009,06,03,13,02,25.80
2009,06,03,13,03,25.80
2009,06,03,13,04,25.80
2009,06,03,13,05,25.90
2009,06,03,13,06,25.90
2009,06,03,13,07,25.90
2009,06,03,13,08,25.80
2009,06,03,13,09,25.70
2009,06,03,13,10,25.70
2009,06,03,13,11,25.70
2009,06,03,13,12,25.60
2009,06,03,13,13,25.60
2009,06,03,13,14,25.70
2009,06,03,13,15,25.70
2009,06,03,13,16,25.90
2009,06,03,13,17,25.90
2009,06,03,13,18,25.90
2009,06,03,13,19,25.90
2009,06,03,13,20,25.90
2009,06,03,13,21,25.90
2009,06,03,13,22,25.90
2009,06,03,13,23,26.00
2009,06,03,13,24,26.00
2009,06,03,13,25,26.10
2009,06,03,13,26,26.20
2009,06,03,13,27,26.20
2009,06,03,13,28,26.30
2009,06,03,13,29,26.30
2009,06,03,13,30,26.40
2009,06,03,13,31,26.60
2009,06,03,13,32,26.60
2009,06,03,13,33,26.60
2009,06,03,13,34,26.50
2009,06,03,13,35,26.40
2009,06,03,13,36,26.30
2009,06,03,13,37,26.30
2009,06,03,13,38,26.20
2009,06,03,13,39,26.20
2009,06,03,13,40,26.20
2009,06,03,13,41,26.30
2009,06,03,13,42,26.30
2009,06,03,13,43,26.40
2009,06,03,13,44,26.50
2009,06,03,13,45,26.60
2009,06,03,13,46,26.60
2009,06,03,13,47,26.60
2009,06,03,13,48,26.60
2009,06,03,13,49,26.60
2009,06,03,13,50,26.60
2009,06,03,13,51,26.60
2009,06,03,13,52,26.70
2009,06,03,13,53,26.80
2009,06,03,13,54,26.90
2009,06,03,13,55,27.00
2009,06,03,13,56,27.10
2009,06,03,13,57,27.10
2009,06,03,13,58,27.10
2009,06,03,13,59,27.10
2009,06,03,14,00,27.00
2009,06,03,14,01,26.90
2009,06,03,14,02,26.90
2009,06,03,14,03,27.10
2009,06,03,14,04,27.20
2009,06,03,14,05,27.20
2009,06,03,14,06,27.30
2009,06,03,14,07,27.30
2009,06,03,14,08,27.40
2009,06,03,14,09,27.50
2009,06,03,14,10,27.60
2009,06,03,14,11,27.70
2009,06,03,14,12,27.70
2009,06,03,14,13,27.60
2009,06,03,14,14,27.40
2009,06,03,14,15,27.30
2009,06,03,14,16,27.20
2009,06,03,14,17,27.10
2009,06,03,14,18,27.10
2009,06,03,14,19,27.20
2009,06,03,14,20,27.30
2009,06,03,14,21,27.30
2009,06,03,14,22,27.30
2009,06,03,14,23,27.40
2009,06,03,14,24,27.40
2009,06,03,14,25,27.40
2009,06,03,14,26,27.50
2009,06,03,14,27,27.60
2009,06,03,14,28,27.60
2009,06,03,14,29,27.60
2009,06,03,14,30,27.70
2009,06,03,14,31,27.80
2009,06,03,14,32,27.80
2009,06,03,14,33,27.90
2009,06,03,14,34,27.90
2009,06,03,14,35,27.90
2009,06,03,14,36,27.90
2009,06,03,14,37,27.90
2009,06,03,14,38,27.90
2009,06,03,14,39,27.70
2009,06,03,14,40,27.70
2009,06,03,14,41,27.70
2009,06,03,14,42,27.70
2009,06,03,14,43,27.80
2009,06,03,14,44,27.80
2009,06,03,14,45,27.80
2009,06,03,14,46,27.90
2009,06,03,14,47,28.00
2009,06,03,14,48,28.00
2009,06,03,14,49,28.10
2009,06,03,14,50,28.10
2009,06,03,14,51,28.10
2009,06,03,14,52,28.10
2009,06,03,14,53,28.10
2009,06,03,14,54,28.00
2009,06,03,14,55,27.90
2009,06,03,14,56,27.80
2009,06,03,14,57,27.80
2009,06,03,14,58,27.80
2009,06,03,14,59,27.70
2009,06,03,15,00,27.70
2009,06,03,15,01,27.60
2009,06,03,15,02,27.60
2009,06,03,15,03,27.60
2009,06,03,15,04,27.60
2009,06,03,15,05,27.60
2009,06,03,15,06,27.60
2009,06,03,15,07,27.60
2009,06,03,15,08,27.60
2009,06,03,15,09,27.60
2009,06,03,15,10,27.50
2009,06,03,15,11,27.40
2009,06,03,15,12,27.30
2009,06,03,15,13,27.30
2009,06,03,15,14,27.30
2009,06,03,15,15,27.30
2009,06,03,15,16,27.30
2009,06,03,15,17,27.30
2009,06,03,15,18,27.30
2009,06,03,15,19,27.30
2009,06,03,15,20,27.30
2009,06,03,15,21,27.30
2009,06,03,15,22,27.30
2009,06,03,15,23,27.30
2009,06,03,15,24,27.20
2009,06,03,15,25,27.10
2009,06,03,15,26,27.10
2009,06,03,15,27,27.20
2009,06,03,15,28,27.20
2009,06,03,15,29,27.10
2009,06,03,15,30,27.20
2009,06,03,15,31,27.30
2009,06,03,15,32,27.30
2009,06,03,15,33,27.30
2009,06,03,15,34,27.20
2009,06,03,15,35,27.10
2009,06,03,15,36,27.00
2009,06,03,15,37,26.90
2009,06,03,15,38,26.80
2009,06,03,15,39,26.70
2009,06,03,15,40,26.70
2009,06,03,15,41,26.60
2009,06,03,15,42,26.40
2009,06,03,15,43,26.30
2009,06,03,15,44,26.20
2009,06,03,15,45,26.30
2009,06,03,15,46,26.30
2009,06,03,15,47,26.20
2009,06,03,15,48,26.20
2009,06,03,15,49,26.30
2009,06,03,15,50,26.30
2009,06,03,15,51,26.30
2009,06,03,15,52,26.20
2009,06,03,15,53,26.20
2009,06,03,15,54,26.20
2009,06,03,15,55,26.20
2009,06,03,15,56,26.30
2009,06,03,15,57,26.40
2009,06,03,15,58,26.50
2009,06,03,15,59,26.60
2009,06,03,16,00,26.70
2009,06,03,16,01,26.70
2009,06,03,16,02,26.80
2009,06,03,16,03,26.80
2009,06,03,16,04,26.60
2009,06,03,16,05,26.50
2009,06,03,16,06,26.40
2009,06,03,16,07,26.30
2009,06,03,16,08,26.40
2009,06,03,16,09,26.40
2009,06,03,16,10,26.60
2009,06,03,16,11,26.60
2009,06,03,16,12,26.70
2009,06,03,16,13,26.70
2009,06,03,16,14,26.80
2009,06,03,16,15,26.80
2009,06,03,16,16,26.90
2009,06,03,16,17,26.90
2009,06,03,16,18,26.80
2009,06,03,16,19,26.80
2009,06,03,16,20,26.80
2009,06,03,16,21,26.80
2009,06,03,16,22,26.80
2009,06,03,16,23,26.90
2009,06,03,16,24,26.90
2009,06,03,16,25,26.90
2009,06,03,16,26,26.90
2009,06,03,16,27,26.80
2009,06,03,16,28,26.90
2009,06,03,16,29,26.90
2009,06,03,16,30,27.00
2009,06,03,16,31,27.10
2009,06,03,16,32,27.10
2009,06,03,16,33,27.20
2009,06,03,16,34,27.30
2009,06,03,16,35,27.40
2009,06,03,16,36,27.60
2009,06,03,16,37,27.70
2009,06,03,16,38,27.70
2009,06,03,16,39,27.80
2009,06,03,16,40,27.90
2009,06,03,16,41,28.00
2009,06,03,16,42,28.00
2009,06,03,16,43,28.10
2009,06,03,16,44,28.20
2009,06,03,16,45,28.30
2009,06,03,16,46,28.40
2009,06,03,16,47,28.40
2009,06,03,16,48,28.40
2009,06,03,16,49,28.40
2009,06,03,16,50,28.30
2009,06,03,16,51,28.20
2009,06,03,16,52,28.10
2009,06,03,16,53,28.10
2009,06,03,16,54,28.00
2009,06,03,16,55,28.00
2009,06,03,16,56,28.00
2009,06,03,16,57,28.00
2009,06,03,16,58,28.00
2009,06,03,16,59,28.00
2009,06,03,17,00,28.00
2009,06,03,17,01,28.00
2009,06,03,17,02,28.00
2009,06,03,17,03,27.90
2009,06,03,17,04,27.90
2009,06,03,17,05,27.90
2009,06,03,17,06,28.00
2009,06,03,17,07,28.10
2009,06,03,17,08,28.20
2009,06,03,17,09,28.30
2009,06,03,17,10,28.40
2009,06,03,17,11,28.50
2009,06,03,17,12,28.60
2009,06,03,17,13,28.60
2009,06,03,17,14,28.70
2009,06,03,17,15,28.70
2009,06,03,17,16,28.70
2009,06,03,17,17,28.60
2009,06,03,17,18,28.50
2009,06,03,17,19,28.40